User: anonymous   Login
Location: Unspecified
(0.0000°N, 0.0000°E)
Time: 10:53:50
(UTC+00:00)
Language:

TEMPEST-D - Orbit

View from above orbital plane
View from above orbital plane
View from above satellite
View from above satellite

Ground track
Ground track

The orbit data is extracted from the following two-line orbital elements,

1 43547U 98067NV  19107.94189056 +.00004087 +00000-0 +61801-4 0  9992
2 43547 051.6379 295.9096 0005264 249.1577 110.8852 15.57206475042955
Epoch (UTC): 17 April 2019 22:36:19
Eccentricity: 0.0005264
inclination: 51.6379°
perigee height: 392 km
apogee height: 399 km
right ascension of ascending node: 295.9096°
argument of perigee: 249.1577°
revolutions per day: 15.57206475
mean anomaly at epoch: 110.8852°
orbit number at epoch: 4295

The dashed part of the orbit path shows where the satellite is in the earth's shadow,  

DLR